RH
24 25 30 34 46 41 40 47 57 63 53 50 49 48 47 49 49 52 54 52 58 64 62 66 67 65 66 67 72 70 71 70
29 32 36 39 46 45 46 52 51 48 47 48 50 53 51 49 46 50 52 51 50 60 61 61 64 64 68 67 69 69 68 70
32 36 41 43 42 41 39 38 44 42 41 45 51 54 51 50 50 48 48 50 52 50 61 60 62 65 67 70 71 71 69 71
31 36 44 48 48 47 38 40 42 48 53 43 47 49 52 49 51 50 48 58 57 58 62 63 65 66 70 70 68 70 72 71
28 35 43 50 52 50 43 41 40 42 50 52 58 55 52 54 55 51 48 55 55 50 52 58 64 70 72 72 64 82 80 84
31 35 40 43 53 54 49 42 39 44 48 54 60 61 59 55 58 59 57 57 55 50 52 60 68 70 72 84 79 80 80 84
30 31 35 42 54 51 51 44 39 44 46 52 56 60 61 61 61 62 60 55 52 54 50 64 67 72 75 76 76 80 76 80
33 32 33 36 43 46 46 46 44 45 51 51 55 60 62 61 62 61 60 55 55 55 59 66 74 76 80 81 82 81 81 88
35 34 36 37 42 45 46 45 45 44 52 60 60 60 59 59 59 57 60 60 61 61 71 73 73 78 79 79 82 84 87 90
32 33 38 40 41 46 50 47 42 45 52 58 60 61 63 63 60 62 65 63 50 67 70 74 72 76 77 79 78 78 86 88
32 31 37 39 42 45 53 47 42 45 48 55 48 52 54 59 60 62 62 64 62 64 69 75 73 74 75 76 78 84 85 85
32 33 38 40 46 47 48 44 41 44 44 50 54 52 52 55 59 63 68 66 63 62 70 80 82 84 79 80 75 73 71 77
34 37 38 40 43 44 41 45 44 45 44 44 47 50 59 61 61 60 66 70 63 62 64 74 79 79 77 75 72 66 71 70
34 37 40 39 40 39 38 42 43 40 36 40 45 50 60 61 61 64 64 63 59 56 53 56 55 57 55 52 50 53 56 54
35 40 41 42 38 35 35 40 43 38 36 40 48 53 58 58 62 63 61 57 54 50 49 49 52 45 41 45 47 59 60 53
44 48 47 40 34 34 35 40 38 41 38 41 48 52 52 57 61 62 57 53 46 46 46 50 53 44 41 60 58 61 63 60
48 47 41 34 32 33 36 38 38 40 40 41 40 50 51 57 59 61 56 49 49 51 52 53 55 36 72 66 68 71 63 62
50 45 38 33 34 30 31 35 36 37 38 36 40 53 50 55 50 49 48 53 53 55 56 56 59 61 67 68 70 69 69 68
44 38 33 32 28 27 32 32 36 39 41 45 36 53 52 51 54 49 51 54 57 58 60 60 66 54 74 73 74 79 76 72
Wind_Speed
12 16 11 13 8 7 6 9 10 8 4 3 3 3 3 3 2 4 6 3 5 5 4 6 5 4 5 4 5 4 5 6
16 12 11 10 8 11 12 11 5 3 3 3 4 4 4 4 4 7 6 4 5 4 4 5 6 5 6 7 5 6 6 5
14 13 12 10 8 7 8 9 8 7 5 3 1 1 2 2 3 3 2 3 3 5 4 5 5 5 7 7 6 6 5 4
12 12 10 8 8 8 8 7 7 6 7 4 4 4 3 3 4 4 4 6 6 6 7 5 5 4 4 6 7 8 7 5
11 10 9 8 7 7 6 6 6 6 6 6 6 5 5 6 5 6 7 7 7 7 7 6 6 3 5 6 6 6 8 8
9 9 10 9 6 5 5 5 3 6 2 4 3 5 5 5 4 6 6 5 7 8 8 7 6 5 5 7 8 9 7 6
7 6 10 10 6 4 3 5 6 6 4 3 2 3 4 4 5 5 6 6 7 7 9 6 6 5 5 4 4 6 4 3
6 6 7 5 4 1 1 5 6 6 7 4 3 4 6 6 6 6 9 8 7 8 8 6 5 4 5 4 4 3 3 2
2 3 3 4 5 6 6 6 7 7 6 9 7 6 4 5 7 6 5 5 6 8 6 6 6 5 5 3 0 2 4 4
4 5 3 4 4 5 4 5 6 7 7 5 5 6 5 5 6 5 3 5 6 5 5 4 4 5 5 4 3 4 5 5
7 7 8 9 9 7 7 6 7 7 7 5 5 5 6 4 4 6 5 6 7 7 9 7 6 6 5 5 4 4 5 5
6 8 9 6 4 5 5 6 7 7 8 7 7 6 5 4 4 6 7 8 7 7 6 5 6 4 5 5 8 6 5 5
9 9 9 7 5 5 6 5 6 7 7 7 6 6 9 9 9 9 7 8 7 7 7 4 5 6 6 7 7 6 7 6
8 6 6 10 10 9 6 6 5 6 7 7 8 6 5 5 5 6 5 6 6 7 7 6 6 6 6 6 6 5 7 9
10 10 12 11 9 8 6 6 5 6 7 7 7 5 2 3 4 5 6 7 7 7 7 7 7 7 8 7 7 7 7 8
13 12 10 10 9 8 8 7 7 5 6 6 6 6 2 2 3 5 6 7 6 7 8 7 7 8 5 5 6 6 6 8
14 12 13 11 10 9 8 7 7 5 5 6 8 4 4 3 4 5 6 5 5 6 6 7 7 7 8 6 6 6 9 10
13 13 11 10 10 11 12 7 8 7 11 10 7 1 6 4 4 5 5 4 5 5 6 6 6 6 7 7 8 6 8 9
12 10 10 9 9 12 11 9 10 10 10 13 12 3 4 3 4 5 2 3 5 5 5 4 4 5 5 8 7 6 6 8
Wind_Direction
86 67 50 60 40 37 31 51 51 33 20 101 257 193 225 229 227 65 67 356 37 8 322 291 293 289 284 287 298 304 288 280
59 62 65 74 42 52 33 72 48 352 28 14 12 11 10 358 19 57 34 20 13 324 299 312 325 308 310 312 300 305 294 288
79 72 64 62 55 61 62 68 42 31 28 20 65 303 305 313 288 79 305 53 337 318 338 306 303 321 318 303 298 299 292 293
92 80 73 69 55 52 66 70 67 53 0 24 11 339 336 342 6 336 9 20 342 313 293 299 320 312 316 317 307 304 310 317
88 92 95 80 64 51 72 46 52 59 50 6 2 331 347 354 359 350 353 354 326 348 334 331 326 338 312 292 342 16 11 354
95 102 91 77 69 59 26 347 114 125 70 23 2 12 345 333 332 335 339 356 349 346 338 340 338 330 312 50 34 30 24 2
101 110 134 137 131 114 17 330 6 18 55 26 355 316 303 339 330 340 6 349 347 337 332 335 313 336 32 44 69 56 26 334
59 53 33 48 87 30 49 11 333 342 8 359 11 15 8 5 359 8 360 341 334 329 320 320 28 44 64 50 43 27 305 299
67 64 28 35 32 26 15 9 351 343 2 38 27 16 21 23 21 6 340 332 325 306 359 19 20 40 32 30 200 274 283 262
316 29 21 5 20 22 23 338 327 11 18 9 6 35 15 35 15 350 333 307 307 8 341 356 45 50 24 342 330 309 324 317
360 1 15 15 9 13 12 14 355 2 12 28 7 0 8 16 347 298 319 349 1 352 19 29 356 351 353 348 321 319 294 284
359 12 37 9 7 350 357 357 7 11 12 1 354 337 315 327 354 17 7 341 336 343 4 12 337 346 330 321 285 280 295 300
20 359 359 1 340 350 341 24 16 20 349 330 332 332 35 13 2 346 342 304 318 312 287 273 267 269 264 258 264 265 255 271
352 340 340 353 340 337 344 11 359 354 332 339 333 341 43 347 311 318 305 305 315 311 326 325 327 317 307 311 298 313 5 347
357 1 353 338 331 321 346 326 12 332 338 335 314 326 53 316 317 321 321 314 315 323 330 326 323 319 314 327 360 12 355 330
6 345 327 312 321 329 322 352 323 333 318 300 302 284 96 5 343 307 311 313 325 335 330 324 323 318 29 21 5 338 322 313
344 336 313 314 323 327 319 299 296 303 291 284 273 69 350 318 320 297 290 315 337 325 323 317 321 327 87 45 9 337 321 320
323 308 306 336 332 327 315 314 312 335 301 310 307 281 247 246 287 298 300 335 318 317 310 317 344 9 58 26 3 326 310 318
313 308 319 321 321 314 319 328 298 293 309 296 276 217 241 245 260 267 304 317 302 293 296 13 11 347 6 349 323 300 318 309